YT1XN-8 Weather Reports


Display with metric or nautical units.
time (UTC)temp
F
wind
direction
speed
MPH
gust
MPH
rain 1hr
in
rain 24hr
in
rain mn
in
humidity
%
barometer
mb
20260506102042 79 225 3.0 7.0 0.00 0.00 0.00 46 1013.8
20260506101840 78 225 2.0 7.0 0.00 0.00 0.00 46 1013.8
20260506101041 79 84 1.0 8.0 0.00 0.00 0.00 47 1013.9
20260506100740 78 218 1.0 8.0 0.00 0.00 0.00 46 1013.9
20260506100041 78 248 2.0 6.0 0.00 0.00 0.00 46 1014.1
20260506095640 78 224 1.0 7.0 0.00 0.00 0.00 45 1014.1
20260506095041 78 217 4.0 7.0 0.00 0.00 0.00 47 1014.1
20260506094540 78 174 0.0 8.0 0.00 0.00 0.00 48 1014.2
20260506094041 78 196 3.0 9.0 0.00 0.00 0.00 48 1014.3
20260506093440 78 248 1.0 8.0 0.00 0.00 0.00 48 1014.3
20260506093041 78 244 1.0 7.0 0.00 0.00 0.00 46 1014.3
20260506092340 77 193 2.0 4.0 0.00 0.00 0.00 48 1014.2
20260506092042 77 223 3.0 5.0 0.00 0.00 0.00 46 1014.3
20260506091240 77 231 4.0 4.0 0.00 0.00 0.00 47 1014.4
20260506091042 77 277 3.0 4.0 0.00 0.00 0.00 47 1014.4
20260506090140 77 205 2.0 7.0 0.00 0.00 0.00 50 1014.3
20260506090041 77 228 2.0 7.0 0.00 0.00 0.00 50 1014.4
20260506085040 76 215 2.0 7.0 0.00 0.00 0.00 50 1014.3
20260506084042 76 142 1.0 6.0 0.00 0.00 0.00 50 1014.4
20260506083940 76 230 4.0 6.0 0.00 0.00 0.00 50 1014.4
20260506083041 75 214 2.0 4.0 0.00 0.00 0.00 49 1014.4
20260506082840 75 236 1.0 3.0 0.00 0.00 0.00 50 1014.4
20260506082041 75 256 2.0 4.0 0.00 0.00 0.00 52 1014.4
20260506081740 74 197 0.0 4.0 0.00 0.00 0.00 50 1014.3
20260506081041 74 225 1.0 4.0 0.00 0.00 0.00 51 1014.3
20260506080640 74 150 1.0 4.0 0.00 0.00 0.00 53 1014.3
20260506073340 70 156 0.0 3.0 0.00 0.00 0.00 59 1014.6
20260506073042 70 296 1.0 4.0 0.00 0.00 0.00 61 1014.6
20260506072240 69 192 0.0 4.0 0.00 0.00 0.00 62 1014.6
20260506072042 69 248 1.0 4.0 0.00 0.00 0.00 61 1014.6
20260506071140 68 161 0.0 3.0 0.00 0.00 0.00 63 1014.6
20260506071041 68 161 0.0 3.0 0.00 0.00 0.00 62 1014.6
20260506062041 65 150 1.0 7.0 0.00 0.00 0.00 68 1014.8
20260506061640 64 153 3.0 4.0 0.00 0.00 0.00 69 1014.8
20260506061041 64 233 0.0 3.0 0.00 0.00 0.00 70 1014.9
20260506060540 64 171 0.0 3.0 0.00 0.00 0.00 70 1014.9
20260506051041 61 85 1.0 4.0 0.00 0.00 0.00 69 1014.5
20260506045042 61 74 3.0 5.0 0.00 0.00 0.00 68 1014.6
20260506044841 61 92 4.0 5.0 0.00 0.00 0.00 69 1014.6
20260506044042 61 78 4.0 5.0 0.00 0.00 0.00 69 1014.6
20260506043741 61 84 5.0 5.0 0.00 0.00 0.00 69 1014.6
20260506043042 61 85 4.0 4.0 0.00 0.00 0.00 68 1014.5
20260506042641 61 76 2.0 3.0 0.00 0.00 0.00 67 1014.5
20260506042042 61 76 1.0 3.0 0.00 0.00 0.00 67 1014.4
20260506041541 60 76 1.0 3.0 0.00 0.00 0.00 68 1014.3
20260506041042 60 76 3.0 4.0 0.00 0.00 0.00 68 1014.4
20260506040441 60 80 2.0 4.0 0.00 0.00 0.00 69 1014.4
20260506040042 60 76 4.0 4.0 0.00 0.00 0.00 69 1014.4
20260506035341 59 67 0.0 4.0 0.00 0.00 0.00 69 1014.6
20260506035042 60 67 2.0 4.0 0.00 0.00 0.00 69 1014.5
20260506034241 60 88 3.0 4.0 0.00 0.00 0.00 67 1014.4
20260506034043 60 88 2.0 4.0 0.00 0.00 0.00 67 1014.4
20260506033141 59 88 3.0 5.0 0.00 0.00 0.00 68 1014.4
20260506033042 59 89 3.0 5.0 0.00 0.00 0.00 68 1014.4
20260506032040 59 71 4.0 4.0 0.00 0.00 0.00 68 1014.5
20260506031042 59 82 3.0 4.0 0.00 0.00 0.00 68 1014.4
20260506030940 59 80 4.0 4.0 0.00 0.00 0.00 68 1014.4
20260506030042 59 74 4.0 4.0 0.00 0.00 0.00 68 1014.4
20260506025840 59 73 4.0 4.0 0.00 0.00 0.00 68 1014.4
20260506025041 59 70 0.0 4.0 0.00 0.00 0.00 68 1014.4
20260506024740 59 70 2.0 4.0 0.00 0.00 0.00 68 1014.3
20260506024041 59 80 2.0 3.0 0.00 0.00 0.00 68 1014.3
20260506023640 59 70 2.0 3.0 0.00 0.00 0.00 68 1014.3
20260506023041 59 80 2.0 3.0 0.00 0.00 0.00 68 1014.3
20260506022540 59 80 2.0 3.0 0.00 0.00 0.00 68 1014.2
20260506022041 59 80 1.0 3.0 0.00 0.00 0.00 68 1014.2
20260506021440 59 80 1.0 3.0 0.00 0.00 0.00 68 1014.1
20260506021042 59 63 2.0 3.0 0.00 0.00 0.00 68 1014.2
20260506020340 59 85 2.0 3.0 0.00 0.00 0.00 67 1014.2
20260506020042 59 81 2.0 3.0 0.00 0.00 0.00 68 1014.2
20260506015240 58 132 1.0 2.0 0.00 0.00 0.00 67 1014.1
20260506015042 58 132 2.0 2.0 0.00 0.00 0.00 67 1014.2
20260506014140 58 132 0.0 2.0 0.00 0.00 0.00 68 1014.1
20260506014042 58 132 0.0 2.0 0.00 0.00 0.00 68 1014.2
20260506013052 58 132 0.0 2.0 0.00 0.00 0.00 68 1014.1
20260506012039 58 132 2.0 2.0 0.00 0.00 0.00 69 1014.0
20260506011041 59 132 1.0 2.0 0.00 0.00 0.00 66 1013.9
20260506010939 59 132 0.0 2.0 0.00 0.00 0.00 66 1013.8
20260506010040 59 235 1.0 3.0 0.00 0.00 0.00 66 1013.9
20260506005839 59 235 0.0 3.0 0.00 0.00 0.00 66 1013.8
20260506005040 59 227 2.0 3.0 0.00 0.00 0.00 66 1013.7
20260506004739 59 227 2.0 3.0 0.00 0.00 0.00 66 1013.9
20260506004040 59 239 2.0 3.0 0.00 0.00 0.00 67 1013.7
20260506003639 60 217 2.0 3.0 0.00 0.00 0.00 66 1013.7
20260506003040 60 164 0.0 5.0 0.00 0.00 0.00 66 1013.8
20260506002539 60 159 2.0 5.0 0.00 0.00 0.00 67 1013.7
20260506002040 60 140 2.0 4.0 0.00 0.00 0.00 67 1013.7
20260506001439 60 138 3.0 3.0 0.00 0.00 0.00 68 1013.7
20260506001040 60 149 0.0 3.0 0.00 0.00 0.00 67 1013.7
20260506000339 61 136 1.0 2.0 0.00 0.00 0.00 67 1013.7
20260506000040 61 148 0.0 2.0 0.00 0.00 0.00 67 1013.7
20260505235239 61 199 0.0 1.0 0.00 0.00 0.00 66 1013.7
20260505235043 61 198 0.0 1.0 0.00 0.00 0.00 66 1013.7
20260505234139 61 244 0.0 1.0 0.00 0.00 0.00 66 1013.7
20260505234040 61 244 0.0 1.0 0.00 0.00 0.00 66 1013.6
20260505233039 61 244 0.0 0.0 0.00 0.00 0.00 66 1013.7
20260505232044 61 244 0.0 0.0 0.00 0.00 0.00 66 1013.7
20260505231939 61 244 0.0 1.0 0.00 0.00 0.00 66 1013.7
20260505231040 61 240 1.0 2.0 0.00 0.00 0.00 65 1013.6
20260505230839 62 257 0.0 2.0 0.00 0.00 0.00 65 1013.7
20260505230040 62 257 0.0 2.0 0.00 0.00 0.00 64 1013.8
20260505225740 62 257 1.0 2.0 0.00 0.00 0.00 64 1013.7
20260505225041 63 355 0.0 5.0 0.00 0.00 0.00 64 1013.9
20260505224640 63 355 0.0 5.0 0.00 0.00 0.00 63 1013.8
20260505224041 63 355 2.0 6.0 0.00 0.00 0.00 63 1013.9
20260505223540 63 9 2.0 6.0 0.00 0.00 0.00 63 1013.9
20260505223042 63 345 3.0 5.0 0.00 0.00 0.00 63 1013.9
20260505222440 63 5 1.0 4.0 0.00 0.00 0.00 63 1013.9
20260505222042 63 5 2.0 5.0 0.00 0.00 0.00 62 1014.0
20260505221340 63 349 2.0 10.0 0.00 0.00 0.00 63 1013.9
20260505221041 63 5 2.0 10.0 0.00 0.00 0.00 63 1014.0
20260505220240 62 341 5.0 8.0 0.00 0.00 0.00 63 1014.0
20260505220042 62 355 2.0 6.0 0.00 0.00 0.00 63 1013.9
20260505215140 62 360 1.0 5.0 0.00 0.00 0.00 63 1014.0
20260505215041 62 355 3.0 5.0 0.00 0.00 0.00 62 1014.0
20260505214040 63 10 0.0 2.0 0.00 0.00 0.00 61 1014.0
20260505213041 63 313 0.0 2.0 0.00 0.00 0.00 58 1014.0
20260505212940 64 313 0.0 2.0 0.00 0.00 0.00 58 1014.0
20260505212041 64 291 1.0 7.0 0.00 0.00 0.00 56 1014.1
20260505211840 64 292 0.0 7.0 0.00 0.00 0.00 55 1014.1
20260505211041 65 275 3.0 4.0 0.00 0.00 0.00 55 1014.0
20260505210740 65 312 1.0 4.0 0.00 0.00 0.00 54 1013.9
20260505210041 65 298 3.0 9.0 0.00 0.00 0.00 53 1014.0
20260505205640 66 269 2.0 9.0 0.00 0.00 0.00 53 1014.0
20260505205041 66 286 3.0 9.0 0.00 0.00 0.00 52 1013.9
20260505204539 66 273 3.0 9.0 0.00 0.00 0.00 51 1013.8
20260505204041 66 277 2.0 10.0 0.00 0.00 0.00 50 1013.7
20260505203439 67 297 4.0 10.0 0.00 0.00 0.00 49 1013.6
20260505203041 67 263 4.0 9.0 0.00 0.00 0.00 49 1013.5
20260505202339 67 316 5.0 8.0 0.00 0.00 0.00 49 1013.3
20260505202041 67 267 4.0 9.0 0.00 0.00 0.00 48 1013.3
20260505201239 67 284 9.0 9.0 0.00 0.00 0.00 49 1013.2
20260505201041 67 309 2.0 3.0 0.00 0.00 0.00 48 1013.2
20260505200139 66 61 0.0 7.0 0.00 0.00 0.00 50 1013.1
20260505200040 66 331 0.0 7.0 0.00 0.00 0.00 50 1013.0
20260505195039 66 242 0.0 5.0 0.00 0.00 0.00 53 1012.9
20260505194041 67 277 0.0 9.0 0.00 0.00 0.00 51 1013.0
20260505193939 67 265 2.0 9.0 0.00 0.00 0.00 51 1012.9
20260505193041 70 269 6.0 7.0 0.00 0.00 0.00 47 1012.7
20260505192839 70 269 1.0 4.0 0.00 0.00 0.00 44 1012.6
20260505192041 70 249 1.0 2.0 0.00 0.00 0.00 43 1012.4
20260505191739 71 252 1.0 2.0 0.00 0.00 0.00 44 1012.5
20260505191040 72 14 0.0 2.0 0.00 0.00 0.00 38 1012.2
20260505190639 72 14 0.0 2.0 0.00 0.00 0.00 38 1012.1
20260505190041 72 14 1.0 4.0 0.00 0.00 0.00 39 1012.1
20260505185539 72 9 2.0 4.0 0.00 0.00 0.00 39 1012.0
20260505185047 72 23 0.0 2.0 0.00 0.00 0.00 39 1012.0
20260505184439 72 66 0.0 1.0 0.00 0.00 0.00 39 1011.9
20260505184041 72 66 0.0 1.0 0.00 0.00 0.00 40 1011.9
20260505183339 72 66 1.0 3.0 0.00 0.00 0.00 40 1011.9
20260505183041 72 66 1.0 4.0 0.00 0.00 0.00 41 1011.8
20260505182239 72 70 3.0 4.0 0.00 0.00 0.00 41 1011.8
20260505182040 73 61 3.0 5.0 0.00 0.00 0.00 41 1011.7
20260505181139 73 76 4.0 5.0 0.00 0.00 0.00 41 1011.7
20260505181041 73 71 4.0 5.0 0.00 0.00 0.00 40 1011.7
20260505180039 73 65 2.0 4.0 0.00 0.00 0.00 41 1011.7
20260505175042 74 57 4.0 4.0 0.00 0.00 0.00 41 1011.7
20260505174939 74 68 4.0 4.0 0.00 0.00 0.00 41 1011.5
20260505174040 74 65 3.0 5.0 0.00 0.00 0.00 41 1011.4
20260505173839 74 66 2.0 5.0 0.00 0.00 0.00 41 1011.5
20260505173040 74 65 3.0 5.0 0.00 0.00 0.00 41 1011.4
20260505172739 74 63 3.0 5.0 0.00 0.00 0.00 42 1011.4
20260505172040 74 82 3.0 5.0 0.00 0.00 0.00 42 1011.3
20260505171639 74 76 3.0 6.0 0.00 0.00 0.00 42 1011.3
20260505171041 75 88 2.0 6.0 0.00 0.00 0.00 42 1011.3
20260505170539 75 69 5.0 7.0 0.00 0.00 0.00 42 1011.2
20260505170041 75 82 4.0 7.0 0.00 0.00 0.00 42 1011.3
20260505165439 75 73 4.0 6.0 0.00 0.00 0.00 42 1011.2
20260505165041 75 80 3.0 7.0 0.00 0.00 0.00 41 1011.2
20260505164339 76 89 2.0 6.0 0.00 0.00 0.00 40 1011.4
20260505164040 76 92 3.0 6.0 0.00 0.00 0.00 40 1011.4
20260505163239 76 75 3.0 4.0 0.00 0.00 0.00 40 1011.4
20260505163040 76 65 2.0 4.0 0.00 0.00 0.00 40 1011.4
20260505162139 77 67 2.0 3.0 0.00 0.00 0.00 40 1011.5
20260505162040 77 69 2.0 3.0 0.00 0.00 0.00 40 1011.5
20260505161039 78 83 1.0 3.0 0.00 0.00 0.00 37 1011.5
20260505153040 79 81 4.0 7.0 0.00 0.00 0.00 36 1012.0
20260505152639 79 139 5.0 7.0 0.00 0.00 0.00 35 1012.0
20260505152040 80 168 0.0 8.0 0.00 0.00 0.00 36 1012.0
20260505151539 80 113 2.0 8.0 0.00 0.00 0.00 33 1012.0
20260505151040 80 98 6.0 8.0 0.00 0.00 0.00 35 1012.0
20260505150439 80 85 7.0 8.0 0.00 0.00 0.00 35 1012.1
20260505125041 82 121 1.0 4.0 0.00 0.00 0.00 36 1013.7
20260505124140 82 219 1.0 4.0 0.00 0.00 0.00 33 1013.8
20260505124041 82 160 4.0 4.0 0.00 0.00 0.00 33 1013.9
20260505123040 82 257 1.0 4.0 0.00 0.00 0.00 36 1014.1
20260505122041 82 257 3.0 7.0 0.00 0.00 0.00 39 1014.3
20260505121940 82 257 3.0 5.0 0.00 0.00 0.00 37 1014.3
20260505121041 83 238 0.0 4.0 0.00 0.00 0.00 31 1014.4
20260505120840 83 238 1.0 4.0 0.00 0.00 0.00 32 1014.4
20260505120041 83 217 0.0 5.0 0.00 0.00 0.00 33 1014.4
20260505115740 83 284 2.0 7.0 0.00 0.00 0.00 35 1014.4
20260505115041 83 272 4.0 7.0 0.00 0.00 0.00 33 1014.5
20260505114640 82 256 0.0 5.0 0.00 0.00 0.00 34 1014.6
20260505114041 81 208 1.0 5.0 0.00 0.00 0.00 37 1014.5
20260505113540 81 178 2.0 3.0 0.00 0.00 0.00 33 1014.5
20260505113041 81 131 1.0 4.0 0.00 0.00 0.00 33 1014.6
20260505112439 82 167 4.0 7.0 0.00 0.00 0.00 35 1014.7
20260505112041 82 110 0.0 7.0 0.00 0.00 0.00 32 1014.7
20260505111339 82 232 1.0 6.0 0.00 0.00 0.00 34 1014.8
20260505111040 82 32 3.0 7.0 0.00 0.00 0.00 32 1014.8
20260505110239 82 242 3.0 5.0 0.00 0.00 0.00 40 1014.7